Погода в Жмеринке

Украина / Винницкая область     49˚02′32″N   28˚05′57″E
темп.,
°C
ветер,
м/с
пор.,
м/с
влажн.,
%
обл.,
%
осадки,
мм/ч
давл.,
гПа
погр.,
м
5 декабря, сб
сб523:00+5˚ююв81488100 0.0 1021651
02:00+4˚ююв7139097 0.0 1022516
05:00+4˚юв7129099 0.0 1022441
08:00+2˚юв7119598 0.0 1023405
11:00+2˚ююв71193100 0.0 1024475
14:00+2˚ююв71093100 0.0 1024536
17:00+2˚юв71192100 0.0 1025522
20:00+2˚юв71190100 0.0 1026535
6 декабря, вс
вс623:00+1˚юв71187100 0.0 1027527
02:00юв61090100 0.0 1028518
05:00юв71186100 0.0 1028519
08:00−2˚юв6138195 0.0 1029485
11:00юв713631 0.0 1029564
14:00+1˚юв711530 0.0 1028580
17:00−2˚вюв613470 0.0 1028457
20:00−3˚вюв713460 0.0 1029517
7 декабря, пн
пн723:00−3˚юв612460 0.0 1029518
02:00−4˚вюв613500 0.0 1029454
05:00−5˚вюв612600 0.0 1028465
08:00−6˚вюв613650 0.0 1028468
11:00−4˚вюв712570 0.0 1027563
14:00−3˚вюв812582 0.0 1026820
17:00−4˚вюв7127485 0.0 1025644
20:00−4˚вюв8148992 0.1 1024617
8 декабря, вт
вт823:00−3˚вюв81686100 0.2 1024575
02:00−4˚вюв9168686 0.2 1023366
05:00−4˚вюв7138075 0.0 1023515
08:00−5˚вюв7127387 0.0 1023519
11:00−4˚вюв71169100 0.0 1023524
14:00−2˚вюв6107099 0.0 1022580
17:00−3˚в71294100 1.3 1022446
20:00−2˚вюв71292100 3.3 1022494
9 декабря, ср
ср923:00−2˚вюв61290100 0.2 1021446
02:00−1˚вюв61192100 0.3 1021396
05:00−2˚вюв71192100 0.1 1021324
08:00−1˚вюв71193100 0.1 1021310
11:00−2˚вюв71293100 0.1 1022414
14:00вюв71193100 0.1 1020361
17:00вюв71492100 0.1 1020419
20:00+1˚вюв81493100 0.3 1019426